This is the latest recevied weather packets stored in our database for station/object YO6LRV-3. If no packets are shown the sender has not sent any weather packets the latest 10 day(s).
| Time | Temp. | Humidity | Pressure | Rain* | Wind** | Luminosity | Snow |
|---|---|---|---|---|---|---|---|
| 1777967469 | 17.78° C | 43% | 1016.1 hPa | - | - | - | - |
| 1777966569 | 17.22° C | 45% | 1016.2 hPa | - | - | - | - |
| 1777965669 | 16.67° C | 45% | 1016.2 hPa | - | - | - | - |
| 1777964771 | 16.11° C | 47% | 1016.3 hPa | - | - | - | - |
| 1777963871 | 15.56° C | 48% | 1016.3 hPa | - | - | - | - |
| 1777962971 | 15.56° C | 48% | 1016.4 hPa | - | - | - | - |
| 1777962071 | 15° C | 49% | 1016.2 hPa | - | - | - | - |
| 1777961171 | 14.44° C | 49% | 1016.2 hPa | - | - | - | - |
| 1777960271 | 14.44° C | 48% | 1016.2 hPa | - | - | - | - |
| 1777959371 | 13.89° C | 46% | 1016.1 hPa | - | - | - | - |
| 1777958471 | 13.89° C | 45% | 1016.1 hPa | - | - | - | - |
| 1777957571 | 13.33° C | 45% | 1016 hPa | - | - | - | - |
| 1777956670 | 13.33° C | 44% | 1015.9 hPa | - | - | - | - |
| 1777955770 | 13.33° C | 44% | 1015.8 hPa | - | - | - | - |
| 1777954870 | 13.33° C | 43% | 1015.8 hPa | - | - | - | - |
| 1777953970 | 13.33° C | 44% | 1015.8 hPa | - | - | - | - |
| 1777953069 | 12.78° C | 44% | 1015.7 hPa | - | - | - | - |
| 1777952169 | 12.78° C | 45% | 1015.7 hPa | - | - | - | - |
| 1777951262 | 13.33° C | 45% | 1015.7 hPa | - | - | - | - |
| 1777950362 | 13.33° C | 43% | 1015.6 hPa | - | - | - | - |
| 1777949469 | 13.89° C | 41% | 1015.6 hPa | - | - | - | - |
| 1777947669 | 13.89° C | 42% | 1015.8 hPa | - | - | - | - |
| 1777946768 | 13.89° C | 42% | 1015.7 hPa | - | - | - | - |
| 1777945868 | 13.89° C | 42% | 1015.7 hPa | - | - | - | - |
| 1777944968 | 14.44° C | 41% | 1015.7 hPa | - | - | - | - |
* Rain since midnight (hover to see other rain measurements)
** Current wind speed in m/s (hover to see current wind gust speed)